Voltar ao catálogo

PRAETORIAN SDA_504

AtivoPO
NORAD 100062·PAYLOAD·🇺🇸 United States

Lançado Jul 16, 2026 de Vandenberg Space Force Base

Loading…

Próximas Passagens (próximas 24 horas)

TLE

AtualizadoSource: Space-Track

Época: Sep 13, 2026, 18:17 UTC

1 A0062U 26163D   26256.76214585  .00000214  00000-0  17755-3 0  9990
2 A0062  81.4763 256.1199 0013825  59.8215 300.4310 13.85341225  8161

Acompanhe PRAETORIAN SDA_504 em tempo real com AllMySat

Download on the App Store